一网星座-0607星 (ONEWEB-0607 )

导读

ONEWEB-0607是英国OneWeb公司旗下低轨通信卫星,于2022年12月8日发射入轨,是OneWeb星座组网计划的组成部分。OneWeb旨在通过近地轨道卫星星座构建全球高速低延迟卫星互联网服务,该卫星服务全球网络覆盖,可为偏远地区、航空航海等场景提供宽带连接,助力全球互联基础设施建设。

基本信息
目录编号:
54671
目录名称:
ONEWEB-0607
国际标识:
2022-166AF
轨道中心:
EARTH
卫星名称:
一网星座-0607星
卫星全名:
一网星座-0607星 (ONEWEB-0607 )
卫星状态:
在轨 (已飞行1377 天)
发射日期:
2022-12-08 UTC
国别 :
英国 (GB)
星等 :
--
该卫星已列入 空间交会检测服务 Space Conjunction Data Service (SCDS) ,当前飞行风险评估等级: 无高风险
轨道信息
数据来源 国际轨道数据 AOE轨道数据
星历时间 2026-09-15T16:33:03+0800
15小时前
查看轨道信息
2026-09-15T06:00:00+0800
1天前
查看轨道信息
半长轴 7555.891km 7555.893km
偏心率 0.0002112 0.0002099
轨道倾角 87.928° 87.927°
近地点辐角 83.215° 83.103°
升交点赤经 226.026° 226.113°
平近点角 276.922° 346.272°
近地点 1176.158km 1176.17km
远地点 1179.35km 1179.342km
周期 108.940分钟 108.940分钟
每日圈数 13.218259 13.218255
详细信息
平衡模式:
三轴稳定
覆盖范围:
全球
运营商:
一网卫星公司
运营商所在国:
英国
制造商(研发单位):
一网卫星公司
制造商所在国:
英国
使用方式:
暂无
卫星简介
OneWeb卫星网络由648颗重约125公斤的微型卫星组成,运行在1200公里的轨道上。 每颗卫星都能够提供至少每秒8千兆位的吞吐量,以使用其高吞吐量的Ku频段有效载荷为家庭和移动平台提供互联网接入。该卫星仍在工作。
2D轨道图
3D轨道图
轨道高度分析图
轨道倾角分析图
轨道综合分析图
查看轨道综合分析图
与全量物体交会距离演化趋势 订阅飞行安全评估服务
与全量物体交会风险概率演化趋势 订阅飞行安全评估服务